UNS100 MMUN-KDTW

Flight info

Callsign UNS100
Flight time 3h 4m
Altitude 36000
Route CUN3B CUN UT27 PISAD L333 HRV/N0482F350 DCT MERDN DCT KM21M DCT DEVAC/N0477F360 DCT PXV/N0477F350 DCT WWODD HANBL3
Aircraft B720/M-SDFGHRWY/C

Departure

Time 2026-05-07 15:25
Airport Cancún International Airport (MMUN)

Arrival

Time 2026-05-07 18:30
Airport Detroit Metropolitan Wayne County Airport (KDTW)
Time Latitude Longitude Altitude Speed Heading
2026-05-07 15:17 21.04156 -86.87636 28 ft 0 kts 259°
2026-05-07 15:18 21.04156 -86.87637 28 ft 0 kts 259°
2026-05-07 15:18 21.04148 -86.87679 28 ft 10 kts 259°
2026-05-07 15:18 21.04093 -86.87745 27 ft 15 kts 212°
2026-05-07 15:18 21.03980 -86.87823 25 ft 16 kts 223°
2026-05-07 15:19 21.03984 -86.87913 25 ft 12 kts 303°
2026-05-07 15:19 21.04045 -86.88011 26 ft 18 kts 301°
2026-05-07 15:19 21.04134 -86.88151 27 ft 24 kts 303°
2026-05-07 15:19 21.04224 -86.88297 30 ft 21 kts 305°
2026-05-07 15:20 21.04304 -86.88422 33 ft 19 kts 305°
2026-05-07 15:20 21.04375 -86.88538 35 ft 18 kts 303°
2026-05-07 15:20 21.04450 -86.88628 36 ft 12 kts 352°
2026-05-07 15:20 21.04497 -86.88602 37 ft 6 kts 34°
2026-05-07 15:21 21.04545 -86.88565 38 ft 10 kts 31°
2026-05-07 15:21 21.04630 -86.88510 40 ft 17 kts 34°
2026-05-07 15:21 21.04746 -86.88427 45 ft 20 kts 34°
2026-05-07 15:21 21.04865 -86.88342 48 ft 18 kts 33°
2026-05-07 15:22 21.04962 -86.88274 51 ft 14 kts 34°
2026-05-07 15:22 21.05040 -86.88216 53 ft 13 kts 33°
2026-05-07 15:22 21.05120 -86.88166 53 ft 12 kts 25°
2026-05-07 15:22 21.05194 -86.88110 53 ft 13 kts 33°
2026-05-07 15:23 21.05259 -86.88128 53 ft 8 kts 304°
2026-05-07 15:23 21.05293 -86.88182 53 ft 8 kts 303°
2026-05-07 15:23 21.05344 -86.88210 53 ft 8 kts 14°
2026-05-07 15:23 21.05398 -86.88178 53 ft 8 kts 34°
2026-05-07 15:24 21.05453 -86.88132 53 ft 10 kts 70°
2026-05-07 15:24 21.05454 -86.88115 53 ft 3 kts 99°
2026-05-07 15:24 21.05441 -86.88088 53 ft 0 kts 122°
2026-05-07 15:24 21.05439 -86.88085 53 ft 10 kts 122°
2026-05-07 15:25 21.05211 -86.87719 48 ft 104 kts 124°
2026-05-07 15:25 21.04666 -86.86847 71 ft 171 kts 124°
2026-05-07 15:25 21.03951 -86.85686 435 ft 198 kts 124°
2026-05-07 15:25 21.03218 -86.84481 1328 ft 197 kts 123°
2026-05-07 15:26 21.02425 -86.83170 1893 ft 213 kts 124°
2026-05-07 15:26 21.01557 -86.81785 2206 ft 236 kts 124°
2026-05-07 15:26 21.00606 -86.80260 2573 ft 252 kts 123°
2026-05-07 15:26 20.99593 -86.78632 2838 ft 274 kts 123°
2026-05-07 15:27 20.98558 -86.76962 2736 ft 261 kts 123°
2026-05-07 15:27 20.97589 -86.75391 2648 ft 247 kts 123°
2026-05-07 15:27 20.96719 -86.73845 2834 ft 244 kts 110°
2026-05-07 15:27 20.96602 -86.71997 3080 ft 253 kts 89°
2026-05-07 15:28 20.96897 -86.70151 3339 ft 261 kts 67°
2026-05-07 15:28 20.98137 -86.68710 3598 ft 273 kts 32°
2026-05-07 15:28 20.99896 -86.67888 3885 ft 278 kts 17°
2026-05-07 15:28 21.01848 -86.67891 4154 ft 284 kts 353°
2026-05-07 15:29 21.03726 -86.68626 4424 ft 288 kts 323°
2026-05-07 15:29 21.05318 -86.69965 4728 ft 289 kts 322°
2026-05-07 15:29 21.07025 -86.71414 5056 ft 291 kts 322°
2026-05-07 15:29 21.08619 -86.72798 5355 ft 293 kts 315°
2026-05-07 15:30 21.09822 -86.74554 5646 ft 294 kts 303°
2026-05-07 15:30 21.10965 -86.76388 5962 ft 296 kts 303°
2026-05-07 15:30 21.12113 -86.78233 6271 ft 296 kts 303°
2026-05-07 15:30 21.13257 -86.80079 6586 ft 297 kts 303°
2026-05-07 15:31 21.14319 -86.82006 6892 ft 298 kts 291°
2026-05-07 15:31 21.15087 -86.84057 7208 ft 300 kts 291°
2026-05-07 15:31 21.15867 -86.86147 7533 ft 301 kts 291°
2026-05-07 15:31 21.17005 -86.88013 7819 ft 301 kts 321°
2026-05-07 15:32 21.18863 -86.88979 8109 ft 297 kts 352°
2026-05-07 15:32 21.20882 -86.89356 8442 ft 297 kts 352°
2026-05-07 15:32 21.23001 -86.89748 8945 ft 324 kts 352°
2026-05-07 15:32 21.25332 -86.90170 9645 ft 354 kts 352°
2026-05-07 15:33 21.27836 -86.90617 10458 ft 372 kts 352°
2026-05-07 15:33 21.30400 -86.91072 11307 ft 378 kts 353°
2026-05-07 15:33 21.33020 -86.91536 12162 ft 382 kts 353°
2026-05-07 15:33 21.35637 -86.91997 13022 ft 387 kts 353°
2026-05-07 15:34 21.38302 -86.92466 13913 ft 392 kts 353°
2026-05-07 15:34 21.40995 -86.92938 14839 ft 395 kts 353°
2026-05-07 15:34 21.43731 -86.93417 15783 ft 399 kts 353°
2026-05-07 15:34 21.46471 -86.93896 16735 ft 403 kts 353°
2026-05-07 15:35 21.49221 -86.94376 17694 ft 407 kts 352°
2026-05-07 15:35 21.52041 -86.94865 18651 ft 413 kts 352°
2026-05-07 15:35 21.54905 -86.95363 19615 ft 419 kts 352°
2026-05-07 15:35 21.57780 -86.95861 20558 ft 423 kts 352°
2026-05-07 15:36 21.60711 -86.96368 21505 ft 428 kts 351°
2026-05-07 15:36 21.63657 -86.96878 22446 ft 433 kts 351°
2026-05-07 15:36 21.66646 -86.97395 23422 ft 436 kts 351°
2026-05-07 15:36 21.69621 -86.97910 24400 ft 439 kts 351°
2026-05-07 15:37 21.72686 -86.98441 25409 ft 441 kts 351°
2026-05-07 15:37 21.75686 -86.98960 26393 ft 443 kts 350°
2026-05-07 15:37 21.78711 -86.99484 27387 ft 444 kts 350°
2026-05-07 15:37 21.81766 -87.00014 28386 ft 445 kts 350°
2026-05-07 15:38 21.84816 -87.00542 29387 ft 445 kts 349°
2026-05-07 15:38 21.87871 -87.01073 30385 ft 446 kts 349°
2026-05-07 15:38 21.90939 -87.01605 31379 ft 446 kts 349°
2026-05-07 15:38 21.94008 -87.02138 32367 ft 446 kts 348°
2026-05-07 15:39 21.97039 -87.02665 33370 ft 446 kts 348°
2026-05-07 15:39 22.00132 -87.03203 34427 ft 445 kts 348°
2026-05-07 15:39 22.03195 -87.03735 35466 ft 445 kts 348°
2026-05-07 15:39 22.06242 -87.04265 36491 ft 443 kts 348°
2026-05-07 15:40 22.09334 -87.04802 37508 ft 442 kts 348°
2026-05-07 15:40 22.12369 -87.05329 38372 ft 443 kts 348°
2026-05-07 15:40 22.15448 -87.05867 38536 ft 458 kts 348°
2026-05-07 15:40 22.18733 -87.06448 38186 ft 484 kts 348°
2026-05-07 15:41 22.22280 -87.07084 37790 ft 508 kts 348°
2026-05-07 15:41 22.25869 -87.07732 37431 ft 512 kts 348°
2026-05-07 15:41 22.29506 -87.08389 37084 ft 509 kts 348°
2026-05-07 15:41 22.32981 -87.09016 36761 ft 505 kts 348°
2026-05-07 15:42 22.36481 -87.09300 36412 ft 506 kts 359°
2026-05-07 15:42 22.39970 -87.09250 36094 ft 504 kts 358°
2026-05-07 15:42 22.47074 -87.09303 36062 ft 503 kts 356°
2026-05-07 15:43 22.54062 -87.09448 36053 ft 503 kts 356°
2026-05-07 15:43 22.61060 -87.09629 36056 ft 502 kts 356°
2026-05-07 15:44 22.68030 -87.09827 36055 ft 502 kts 356°
2026-05-07 15:44 22.75016 -87.10031 36059 ft 503 kts 355°
2026-05-07 15:45 22.82033 -87.10239 36062 ft 503 kts 355°
2026-05-07 15:45 22.89055 -87.10449 36060 ft 503 kts 355°
2026-05-07 15:46 22.99541 -87.10762 36063 ft 503 kts 355°
2026-05-07 15:47 23.06533 -87.10971 36065 ft 503 kts 355°
2026-05-07 15:47 23.13537 -87.11182 36063 ft 502 kts 355°
2026-05-07 15:48 23.20515 -87.11391 36061 ft 502 kts 355°
2026-05-07 15:48 23.27542 -87.11603 36063 ft 503 kts 355°
2026-05-07 15:49 23.34498 -87.11813 36065 ft 502 kts 355°
2026-05-07 15:49 23.41474 -87.12023 36064 ft 502 kts 355°
2026-05-07 15:50 23.48504 -87.12234 36065 ft 502 kts 355°
2026-05-07 15:50 23.55478 -87.12447 36065 ft 502 kts 355°
2026-05-07 15:51 23.62486 -87.12658 36063 ft 501 kts 355°
2026-05-07 15:51 23.69429 -87.12869 36065 ft 502 kts 355°
2026-05-07 15:52 23.76444 -87.13081 36065 ft 501 kts 355°
2026-05-07 15:52 23.83405 -87.13292 36065 ft 502 kts 355°
2026-05-07 15:53 23.90386 -87.13505 36065 ft 501 kts 355°
2026-05-07 15:53 23.97359 -87.13716 36065 ft 501 kts 355°
2026-05-07 15:54 24.04351 -87.13930 36067 ft 502 kts 355°
2026-05-07 15:54 24.11358 -87.14143 36067 ft 502 kts 355°
2026-05-07 15:55 24.18315 -87.14355 36068 ft 501 kts 355°
2026-05-07 15:55 24.25312 -87.14570 36068 ft 501 kts 354°
2026-05-07 15:55 24.28749 -87.15068 36076 ft 495 kts 342°
2026-05-07 15:56 24.32040 -87.16165 36086 ft 494 kts 339°
2026-05-07 15:56 24.38559 -87.18501 36073 ft 492 kts 338°
2026-05-07 15:57 24.45018 -87.20884 36073 ft 492 kts 338°
2026-05-07 15:57 24.51528 -87.23315 36072 ft 492 kts 338°
2026-05-07 15:58 24.57969 -87.25736 36073 ft 492 kts 338°
2026-05-07 15:58 24.64448 -87.28176 36073 ft 492 kts 338°
2026-05-07 15:59 24.70934 -87.30624 36073 ft 492 kts 337°
2026-05-07 15:59 24.77423 -87.33077 36075 ft 491 kts 337°
2026-05-07 16:00 24.83876 -87.35520 36075 ft 491 kts 337°
2026-05-07 16:00 24.90336 -87.37968 36074 ft 492 kts 337°
2026-05-07 16:01 24.96800 -87.40421 36071 ft 491 kts 337°
2026-05-07 16:01 25.03284 -87.42883 36075 ft 491 kts 337°
2026-05-07 16:02 25.09730 -87.45334 36074 ft 491 kts 337°
2026-05-07 16:02 25.16212 -87.47800 36073 ft 491 kts 337°
2026-05-07 16:03 25.22674 -87.50263 36069 ft 492 kts 337°
2026-05-07 16:03 25.29129 -87.52726 36067 ft 491 kts 337°
2026-05-07 16:04 25.35589 -87.55193 36064 ft 491 kts 337°
2026-05-07 16:04 25.42058 -87.57667 36070 ft 490 kts 337°
2026-05-07 16:05 25.48496 -87.60131 36067 ft 491 kts 337°
2026-05-07 16:05 25.54922 -87.62594 36064 ft 490 kts 337°
2026-05-07 16:06 25.61419 -87.65086 36072 ft 491 kts 336°
2026-05-07 16:06 25.67845 -87.67554 36078 ft 490 kts 336°
2026-05-07 16:07 25.74292 -87.70035 36081 ft 490 kts 336°
2026-05-07 16:07 25.79904 -87.72195 36085 ft 490 kts 336°
2026-05-07 16:08 25.86313 -87.74664 36082 ft 490 kts 336°
2026-05-07 16:08 25.92775 -87.77158 36086 ft 491 kts 336°
2026-05-07 16:09 25.99217 -87.79646 36089 ft 491 kts 336°
2026-05-07 16:09 26.05687 -87.82148 36087 ft 490 kts 336°
2026-05-07 16:10 26.12109 -87.84634 36087 ft 490 kts 336°
2026-05-07 16:10 26.18575 -87.87141 36084 ft 491 kts 336°
2026-05-07 16:11 26.25037 -87.89648 36073 ft 491 kts 336°
2026-05-07 16:11 26.31494 -87.92157 36068 ft 490 kts 336°
2026-05-07 16:12 26.37931 -87.94661 36074 ft 491 kts 336°
2026-05-07 16:12 26.44391 -87.97176 36077 ft 492 kts 336°
2026-05-07 16:13 26.50839 -87.99691 36078 ft 492 kts 336°
2026-05-07 16:13 26.57263 -88.02200 36075 ft 491 kts 336°
2026-05-07 16:14 26.63741 -88.04732 36068 ft 492 kts 335°
2026-05-07 16:14 26.70163 -88.07244 36065 ft 491 kts 335°
2026-05-07 16:15 26.76635 -88.09780 36065 ft 491 kts 335°
2026-05-07 16:15 26.83113 -88.12322 36065 ft 492 kts 335°
2026-05-07 16:16 26.89567 -88.14856 36064 ft 492 kts 335°
2026-05-07 16:16 26.95999 -88.17384 36064 ft 492 kts 335°
2026-05-07 16:17 27.02476 -88.19935 36065 ft 492 kts 335°
2026-05-07 16:17 27.08905 -88.22469 36065 ft 492 kts 335°
2026-05-07 16:18 27.15383 -88.25026 36064 ft 492 kts 335°
2026-05-07 16:18 27.21841 -88.27578 36063 ft 493 kts 335°
2026-05-07 16:19 27.28292 -88.30130 36063 ft 492 kts 335°
2026-05-07 16:19 27.34751 -88.32688 36061 ft 492 kts 335°
2026-05-07 16:20 27.41210 -88.35251 36063 ft 492 kts 335°
2026-05-07 16:20 27.47688 -88.37823 36062 ft 491 kts 335°
2026-05-07 16:21 27.54134 -88.40385 36063 ft 492 kts 335°
2026-05-07 16:21 27.60603 -88.42960 36060 ft 492 kts 335°
2026-05-07 16:22 27.67034 -88.45525 36060 ft 492 kts 335°
2026-05-07 16:22 27.73452 -88.48086 36060 ft 490 kts 334°
2026-05-07 16:23 27.79914 -88.50668 36060 ft 490 kts 334°
2026-05-07 16:23 27.86339 -88.53239 36060 ft 491 kts 334°
2026-05-07 16:24 27.92781 -88.55819 36061 ft 491 kts 334°
2026-05-07 16:24 27.99195 -88.58392 36059 ft 491 kts 334°
2026-05-07 16:25 28.05623 -88.60974 36058 ft 490 kts 334°
2026-05-07 16:25 28.12044 -88.63557 36057 ft 490 kts 334°
2026-05-07 16:26 28.18488 -88.66151 36072 ft 489 kts 334°
2026-05-07 16:26 28.24407 -88.69628 36089 ft 476 kts 319°
2026-05-07 16:27 28.29838 -88.73878 36070 ft 475 kts 319°
2026-05-07 16:27 28.35242 -88.78199 36069 ft 475 kts 318°
2026-05-07 16:28 28.40605 -88.82530 36066 ft 474 kts 318°
2026-05-07 16:28 28.45969 -88.86886 36068 ft 475 kts 317°
2026-05-07 16:29 28.51329 -88.91249 36067 ft 473 kts 317°
2026-05-07 16:29 28.56665 -88.95602 36066 ft 472 kts 317°
2026-05-07 16:30 28.61988 -88.99948 36066 ft 472 kts 317°
2026-05-07 16:30 28.67348 -89.04334 36066 ft 473 kts 317°
2026-05-07 16:31 28.72660 -89.08684 36066 ft 473 kts 317°
2026-05-07 16:31 28.78021 -89.13082 36066 ft 472 kts 317°
2026-05-07 16:32 28.83339 -89.17448 36065 ft 473 kts 317°
2026-05-07 16:32 28.88663 -89.21826 36063 ft 473 kts 317°
2026-05-07 16:33 28.93990 -89.26211 36063 ft 473 kts 317°
2026-05-07 16:33 28.99323 -89.30608 36065 ft 473 kts 317°
2026-05-07 16:34 29.04660 -89.35014 36062 ft 471 kts 317°
2026-05-07 16:34 29.09983 -89.39415 36060 ft 472 kts 317°
2026-05-07 16:35 29.15303 -89.43817 36058 ft 472 kts 317°
2026-05-07 16:35 29.20587 -89.48197 36057 ft 472 kts 316°
2026-05-07 16:36 29.25915 -89.52618 36055 ft 472 kts 316°
2026-05-07 16:36 29.31219 -89.57025 36057 ft 473 kts 316°
2026-05-07 16:37 29.36557 -89.61466 36056 ft 472 kts 316°
2026-05-07 16:37 29.41854 -89.65879 36068 ft 471 kts 316°
2026-05-07 16:38 29.47145 -89.70293 36072 ft 473 kts 316°
2026-05-07 16:38 29.52479 -89.74747 36069 ft 472 kts 316°
2026-05-07 16:39 29.57791 -89.79192 36070 ft 472 kts 316°
2026-05-07 16:39 29.63063 -89.83607 36076 ft 471 kts 316°
2026-05-07 16:40 29.68379 -89.88065 36075 ft 471 kts 316°
2026-05-07 16:40 29.73676 -89.92513 36075 ft 471 kts 316°
2026-05-07 16:41 29.79034 -89.96838 36068 ft 480 kts 323°
2026-05-07 16:41 29.82144 -89.98332 36092 ft 494 kts 335°
2026-05-07 16:41 29.85576 -89.99094 36086 ft 510 kts 347°
2026-05-07 16:41 29.89148 -89.99074 36088 ft 526 kts 358°
2026-05-07 16:42 29.92806 -89.98227 36091 ft 540 kts 10°
2026-05-07 16:42 29.99786 -89.94817 36080 ft 547 kts 17°
2026-05-07 16:43 30.06816 -89.91389 36082 ft 548 kts 15°
2026-05-07 16:43 30.13838 -89.88068 36076 ft 546 kts 15°
2026-05-07 16:44 30.20851 -89.84791 36076 ft 546 kts 15°
2026-05-07 16:44 30.27890 -89.81510 36078 ft 545 kts 14°
2026-05-07 16:45 30.34937 -89.78229 36076 ft 544 kts 14°
2026-05-07 16:45 30.41999 -89.74938 36079 ft 545 kts 14°
2026-05-07 16:46 30.49045 -89.71651 36080 ft 548 kts 14°
2026-05-07 16:46 30.56054 -89.68372 36082 ft 546 kts 14°
2026-05-07 16:47 30.63192 -89.65030 36082 ft 548 kts 14°
2026-05-07 16:47 30.70256 -89.61719 36087 ft 549 kts 14°
2026-05-07 16:48 30.77377 -89.58373 36088 ft 548 kts 14°
2026-05-07 16:48 30.84426 -89.55059 36088 ft 549 kts 14°
2026-05-07 16:49 30.91548 -89.51701 36086 ft 549 kts 14°
2026-05-07 16:49 30.98593 -89.48377 36094 ft 550 kts 14°
2026-05-07 16:50 31.05728 -89.45006 36095 ft 550 kts 14°
2026-05-07 16:50 31.12874 -89.41622 36090 ft 552 kts 14°
2026-05-07 16:51 31.20016 -89.38236 36095 ft 550 kts 14°
2026-05-07 16:51 31.27140 -89.34851 36104 ft 551 kts 14°
2026-05-07 16:52 31.34226 -89.31480 36095 ft 552 kts 14°
2026-05-07 16:52 31.41415 -89.28055 36096 ft 553 kts 14°
2026-05-07 16:53 31.48526 -89.24660 36099 ft 551 kts 14°
2026-05-07 16:53 31.55623 -89.21268 36100 ft 553 kts 14°
2026-05-07 16:54 31.62743 -89.17858 36101 ft 554 kts 14°
2026-05-07 16:54 31.69868 -89.14439 36103 ft 554 kts 13°
2026-05-07 16:55 31.76987 -89.11018 36099 ft 553 kts 13°
2026-05-07 16:55 31.84111 -89.07588 36098 ft 553 kts 13°
2026-05-07 16:56 31.91243 -89.04151 36100 ft 555 kts 13°
2026-05-07 16:56 32.01946 -88.98980 36104 ft 555 kts 13°
2026-05-07 16:57 32.09117 -88.95507 36107 ft 554 kts 13°
2026-05-07 16:57 32.16233 -88.92056 36102 ft 555 kts 13°
2026-05-07 16:58 32.23378 -88.88586 36104 ft 557 kts 13°
2026-05-07 16:58 32.30553 -88.85095 36106 ft 556 kts 13°
2026-05-07 16:59 32.37674 -88.81574 36099 ft 562 kts 17°
2026-05-07 16:59 32.44699 -88.77405 36105 ft 563 kts 17°
2026-05-07 17:00 32.51713 -88.73238 36108 ft 566 kts 17°
2026-05-07 17:00 32.58722 -88.69064 36106 ft 562 kts 17°
2026-05-07 17:01 32.65695 -88.64907 36105 ft 565 kts 17°
2026-05-07 17:01 32.72688 -88.60728 36103 ft 562 kts 17°
2026-05-07 17:02 32.79673 -88.56548 36100 ft 563 kts 17°
2026-05-07 17:02 32.86713 -88.52331 36097 ft 567 kts 17°
2026-05-07 17:03 32.93727 -88.48115 36094 ft 563 kts 16°
2026-05-07 17:03 33.00699 -88.43922 36099 ft 565 kts 17°
2026-05-07 17:04 33.07734 -88.39681 36100 ft 565 kts 16°
2026-05-07 17:04 33.14768 -88.35432 36094 ft 564 kts 16°
2026-05-07 17:05 33.21805 -88.31175 36072 ft 565 kts 17°
2026-05-07 17:05 33.28794 -88.26938 36084 ft 563 kts 16°
2026-05-07 17:06 33.35817 -88.22676 36078 ft 561 kts 16°
2026-05-07 17:06 33.42810 -88.18424 36083 ft 564 kts 16°
2026-05-07 17:07 33.49786 -88.14172 36090 ft 564 kts 16°
2026-05-07 17:07 33.56754 -88.09918 36088 ft 563 kts 16°
2026-05-07 17:08 33.63777 -88.05625 36088 ft 564 kts 16°
2026-05-07 17:08 33.70773 -88.01342 36087 ft 568 kts 16°
2026-05-07 17:09 33.77761 -87.97047 36093 ft 563 kts 16°
2026-05-07 17:09 33.84772 -87.92739 36094 ft 567 kts 16°
2026-05-07 17:10 33.91748 -87.88438 36100 ft 564 kts 15°
2026-05-07 17:10 33.98748 -87.84118 36096 ft 562 kts 15°
2026-05-07 17:11 34.05748 -87.79791 36101 ft 565 kts 15°
2026-05-07 17:11 34.12687 -87.75491 36094 ft 564 kts 15°
2026-05-07 17:12 34.19710 -87.71131 36093 ft 563 kts 15°
2026-05-07 17:12 34.26669 -87.66805 36096 ft 564 kts 15°
2026-05-07 17:13 34.33620 -87.62472 36098 ft 562 kts 15°
2026-05-07 17:13 34.40583 -87.58128 36097 ft 562 kts 15°
2026-05-07 17:14 34.47589 -87.53746 36099 ft 563 kts 15°
2026-05-07 17:14 34.54554 -87.49384 36105 ft 565 kts 15°
2026-05-07 17:15 34.58077 -87.47491 36101 ft 542 kts
2026-05-07 17:15 34.61650 -87.46460 36117 ft 517 kts 353°
2026-05-07 17:15 34.65200 -87.46254 36122 ft 498 kts 343°
2026-05-07 17:15 34.68642 -87.46372 36118 ft 495 kts 342°
2026-05-07 17:16 34.75526 -87.46806 36118 ft 491 kts 341°
2026-05-07 17:16 34.82340 -87.47367 36118 ft 489 kts 341°
2026-05-07 17:17 34.89109 -87.47981 36123 ft 489 kts 340°
2026-05-07 17:17 34.95861 -87.48615 36116 ft 488 kts 340°
2026-05-07 17:18 35.02625 -87.49262 36119 ft 484 kts 340°
2026-05-07 17:18 35.09389 -87.49917 36119 ft 488 kts 340°
2026-05-07 17:19 35.16157 -87.50573 36114 ft 486 kts 340°
2026-05-07 17:19 35.22902 -87.51228 36115 ft 486 kts 340°
2026-05-07 17:20 35.29621 -87.51882 36121 ft 485 kts 340°
2026-05-07 17:20 35.36344 -87.52538 36119 ft 484 kts 340°
2026-05-07 17:21 35.43068 -87.53195 36118 ft 486 kts 340°
2026-05-07 17:21 35.49798 -87.53853 36121 ft 483 kts 339°
2026-05-07 17:22 35.56508 -87.54510 36120 ft 481 kts 339°
2026-05-07 17:22 35.63184 -87.55165 36121 ft 480 kts 339°
2026-05-07 17:23 35.69866 -87.55824 36123 ft 484 kts 339°
2026-05-07 17:23 35.76534 -87.56480 36123 ft 481 kts 339°
2026-05-07 17:24 35.83204 -87.57139 36128 ft 482 kts 339°
2026-05-07 17:24 35.89877 -87.57800 36126 ft 481 kts 339°
2026-05-07 17:25 35.96566 -87.58454 36131 ft 483 kts 339°
2026-05-07 17:25 36.03256 -87.59115 36128 ft 482 kts 339°
2026-05-07 17:26 36.09908 -87.59775 36126 ft 477 kts 339°
2026-05-07 17:26 36.16585 -87.60442 36124 ft 481 kts 339°
2026-05-07 17:27 36.23236 -87.61105 36128 ft 479 kts 339°
2026-05-07 17:27 36.29904 -87.61773 36129 ft 482 kts 339°
2026-05-07 17:28 36.36553 -87.62436 36123 ft 479 kts 339°
2026-05-07 17:28 36.43241 -87.63108 36129 ft 479 kts 339°
2026-05-07 17:29 36.49934 -87.63780 36133 ft 483 kts 339°
2026-05-07 17:29 36.56601 -87.64452 36140 ft 481 kts 340°
2026-05-07 17:30 36.63287 -87.65126 36143 ft 484 kts 339°
2026-05-07 17:30 36.69991 -87.65803 36140 ft 484 kts 339°
2026-05-07 17:31 36.76686 -87.66482 36136 ft 483 kts 340°
2026-05-07 17:31 36.83403 -87.67162 36135 ft 484 kts 340°
2026-05-07 17:32 36.90082 -87.67838 36139 ft 483 kts 340°
2026-05-07 17:32 36.96767 -87.68520 36137 ft 483 kts 340°
2026-05-07 17:33 37.03435 -87.69198 36134 ft 479 kts 340°
2026-05-07 17:33 37.10154 -87.69887 36139 ft 484 kts 341°
2026-05-07 17:34 37.16814 -87.70566 36133 ft 484 kts 340°
2026-05-07 17:34 37.23507 -87.71253 36135 ft 482 kts 341°
2026-05-07 17:35 37.30221 -87.71941 36138 ft 483 kts 341°
2026-05-07 17:35 37.36874 -87.72623 36133 ft 482 kts 341°
2026-05-07 17:36 37.43597 -87.73318 36134 ft 484 kts 341°
2026-05-07 17:36 37.50344 -87.74015 36137 ft 486 kts 341°
2026-05-07 17:37 37.57021 -87.74702 36133 ft 483 kts 341°
2026-05-07 17:37 37.63731 -87.75397 36136 ft 482 kts 342°
2026-05-07 17:38 37.70446 -87.76095 36140 ft 481 kts 342°
2026-05-07 17:38 37.77164 -87.76794 36144 ft 485 kts 342°
2026-05-07 17:39 37.83882 -87.77492 36148 ft 483 kts 342°
2026-05-07 17:39 37.90722 -87.77550 36152 ft 512 kts 358°
2026-05-07 17:40 37.94204 -87.76377 36156 ft 532 kts
2026-05-07 17:40 37.97599 -87.74324 36161 ft 548 kts 18°
2026-05-07 17:40 38.04258 -87.69671 36143 ft 547 kts 18°
2026-05-07 17:41 38.10871 -87.65017 36144 ft 546 kts 18°
2026-05-07 17:41 38.17508 -87.60328 36149 ft 545 kts 18°
2026-05-07 17:42 38.24110 -87.55649 36135 ft 543 kts 18°
2026-05-07 17:42 38.30746 -87.50939 36131 ft 544 kts 18°
2026-05-07 17:43 38.37381 -87.46223 36128 ft 545 kts 18°
2026-05-07 17:43 38.43970 -87.41523 36127 ft 543 kts 18°
2026-05-07 17:44 38.50575 -87.36804 36129 ft 545 kts 18°
2026-05-07 17:44 38.53883 -87.34435 35931 ft 543 kts 19°
2026-05-07 17:44 38.57147 -87.32095 36126 ft 545 kts 19°
2026-05-07 17:45 38.60461 -87.29719 36013 ft 550 kts 19°
2026-05-07 17:45 38.63771 -87.27336 35928 ft 543 kts 19°
2026-05-07 17:45 38.67043 -87.24985 36145 ft 546 kts 19°
2026-05-07 17:45 38.70393 -87.22573 36085 ft 547 kts 19°
2026-05-07 17:46 38.76952 -87.17843 36122 ft 546 kts 19°
2026-05-07 17:46 38.80274 -87.15442 36334 ft 544 kts 19°
2026-05-07 17:46 38.83563 -87.13064 36091 ft 543 kts 19°
2026-05-07 17:47 38.90180 -87.08273 36137 ft 544 kts 19°
2026-05-07 17:47 38.96759 -87.03499 36089 ft 543 kts 19°
2026-05-07 17:48 39.03345 -86.98708 36112 ft 545 kts 19°
2026-05-07 17:48 39.09969 -86.93881 35986 ft 545 kts 19°
2026-05-07 17:49 39.13241 -86.91491 36122 ft 544 kts 19°
2026-05-07 17:49 39.16559 -86.89067 36110 ft 546 kts 19°
2026-05-07 17:49 39.23103 -86.84274 36097 ft 543 kts 19°
2026-05-07 17:50 39.29685 -86.79445 36094 ft 543 kts 19°
2026-05-07 17:50 39.36246 -86.74621 36113 ft 543 kts 19°
2026-05-07 17:51 39.42805 -86.69788 36090 ft 543 kts 19°
2026-05-07 17:51 39.49346 -86.64955 36107 ft 541 kts 19°
2026-05-07 17:52 39.55885 -86.60117 36095 ft 542 kts 19°
2026-05-07 17:52 39.62403 -86.55281 36108 ft 540 kts 19°
2026-05-07 17:53 39.68926 -86.50433 36106 ft 543 kts 19°
2026-05-07 17:53 39.75457 -86.45568 36107 ft 545 kts 19°
2026-05-07 17:54 39.82028 -86.40661 36062 ft 545 kts 19°
2026-05-07 17:54 39.88300 -86.35050 36175 ft 559 kts 28°
2026-05-07 17:55 39.94340 -86.28750 36130 ft 554 kts 29°
2026-05-07 17:55 40.00325 -86.22427 36097 ft 555 kts 29°
2026-05-07 17:56 40.06323 -86.16054 36100 ft 558 kts 30°
2026-05-07 17:56 40.12346 -86.09625 36089 ft 556 kts 30°
2026-05-07 17:57 40.17345 -86.04280 36077 ft 558 kts 30°
2026-05-07 17:57 40.24300 -85.96815 36073 ft 557 kts 30°
2026-05-07 17:58 40.30292 -85.90377 36078 ft 558 kts 30°
2026-05-07 17:58 40.36297 -85.83911 36074 ft 559 kts 30°
2026-05-07 17:59 40.42289 -85.77433 36091 ft 556 kts 30°
2026-05-07 17:59 40.48271 -85.70950 36082 ft 556 kts 31°
2026-05-07 18:00 40.54241 -85.64468 36082 ft 557 kts 31°
2026-05-07 18:00 40.60198 -85.57980 36081 ft 559 kts 31°
2026-05-07 18:01 40.66151 -85.51477 36076 ft 560 kts 32°
2026-05-07 18:01 40.72023 -85.44649 36078 ft 559 kts 33°
2026-05-07 18:02 40.80766 -85.34421 36085 ft 561 kts 34°
2026-05-07 18:03 40.86470 -85.27411 36065 ft 572 kts 42°
2026-05-07 18:03 40.91838 -85.19655 35915 ft 574 kts 41°
2026-05-07 18:03 40.94508 -85.15760 35723 ft 571 kts 41°
2026-05-07 18:04 40.97152 -85.11892 35378 ft 569 kts 41°
2026-05-07 18:04 40.99792 -85.08017 34987 ft 565 kts 41°
2026-05-07 18:04 41.02387 -85.04195 34625 ft 559 kts 41°
2026-05-07 18:04 41.04997 -85.00353 34232 ft 558 kts 41°
2026-05-07 18:05 41.07576 -84.96539 33876 ft 555 kts 41°
2026-05-07 18:05 41.10143 -84.92747 33509 ft 553 kts 41°
2026-05-07 18:05 41.12676 -84.89002 33165 ft 551 kts 41°
2026-05-07 18:05 41.15213 -84.85237 32830 ft 548 kts 41°
2026-05-07 18:06 41.17743 -84.81483 32481 ft 546 kts 41°
2026-05-07 18:06 41.20268 -84.77728 31960 ft 539 kts 41°
2026-05-07 18:06 41.22722 -84.74075 31394 ft 530 kts 41°
2026-05-07 18:06 41.25155 -84.70450 30817 ft 523 kts 41°
2026-05-07 18:07 41.27554 -84.66870 30243 ft 516 kts 41°
2026-05-07 18:07 41.29904 -84.63361 29643 ft 511 kts 41°
2026-05-07 18:07 41.32407 -84.60112 29014 ft 493 kts 28°
2026-05-07 18:07 41.35136 -84.57385 28418 ft 488 kts 28°
2026-05-07 18:08 41.37855 -84.54689 27836 ft 483 kts 27°
2026-05-07 18:08 41.40537 -84.52041 27271 ft 478 kts 27°
2026-05-07 18:08 41.43184 -84.49433 26719 ft 472 kts 27°
2026-05-07 18:08 41.45779 -84.46880 26172 ft 466 kts 27°
2026-05-07 18:09 41.48358 -84.44344 25613 ft 460 kts 27°
2026-05-07 18:09 41.50900 -84.41848 25063 ft 455 kts 28°
2026-05-07 18:09 41.53438 -84.39349 24502 ft 450 kts 27°
2026-05-07 18:09 41.55931 -84.36897 23969 ft 445 kts 27°
2026-05-07 18:10 41.58403 -84.34464 23414 ft 440 kts 29°
2026-05-07 18:10 41.60765 -84.32137 22872 ft 436 kts 29°
2026-05-07 18:10 41.63200 -84.29736 22312 ft 430 kts 29°
2026-05-07 18:10 41.65580 -84.27388 21745 ft 425 kts 30°
2026-05-07 18:11 41.67926 -84.25069 21174 ft 419 kts 30°
2026-05-07 18:11 41.69491 -84.23521 20796 ft 415 kts 30°
2026-05-07 18:11 41.72500 -84.20411 20037 ft 412 kts 39°
2026-05-07 18:11 41.74529 -84.17550 19445 ft 408 kts 42°
2026-05-07 18:12 41.76460 -84.14809 18881 ft 403 kts 43°
2026-05-07 18:12 41.78366 -84.12094 18321 ft 398 kts 43°
2026-05-07 18:12 41.80247 -84.09402 17760 ft 394 kts 43°
2026-05-07 18:12 41.82081 -84.06767 17202 ft 389 kts 43°
2026-05-07 18:13 41.83907 -84.04141 16646 ft 384 kts 43°
2026-05-07 18:13 41.85708 -84.01545 16100 ft 379 kts 43°
2026-05-07 18:13 41.87488 -83.98976 15552 ft 374 kts 43°
2026-05-07 18:13 41.89255 -83.96421 15005 ft 370 kts 43°
2026-05-07 18:14 41.90997 -83.93898 14473 ft 365 kts 43°
2026-05-07 18:14 41.92695 -83.91437 13947 ft 362 kts 43°
2026-05-07 18:14 41.94401 -83.88961 13396 ft 358 kts 43°
2026-05-07 18:14 41.96090 -83.86521 12861 ft 353 kts 42°
2026-05-07 18:15 41.97758 -83.84145 12381 ft 349 kts 42°
2026-05-07 18:15 41.99381 -83.81830 12059 ft 338 kts 42°
2026-05-07 18:15 42.00970 -83.79562 11729 ft 328 kts 42°
2026-05-07 18:15 42.02516 -83.77355 11385 ft 319 kts 41°
2026-05-07 18:16 42.04022 -83.75206 11026 ft 312 kts 41°
2026-05-07 18:16 42.05483 -83.73119 10701 ft 305 kts 41°
2026-05-07 18:16 42.06912 -83.71074 10567 ft 295 kts 41°
2026-05-07 18:16 42.08324 -83.69057 10437 ft 296 kts 40°
2026-05-07 18:17 42.09766 -83.67098 10309 ft 298 kts 40°
2026-05-07 18:17 42.11241 -83.65099 10192 ft 299 kts 39°
2026-05-07 18:17 42.12688 -83.63140 10087 ft 298 kts 39°
2026-05-07 18:17 42.14150 -83.61154 9991 ft 297 kts 39°
2026-05-07 18:18 42.15598 -83.59189 9883 ft 298 kts 39°
2026-05-07 18:18 42.17066 -83.57198 9776 ft 297 kts 39°
2026-05-07 18:18 42.18705 -83.55603 9646 ft 288 kts 21°
2026-05-07 18:18 42.20484 -83.54298 9538 ft 288 kts 22°
2026-05-07 18:19 42.22220 -83.52970 9349 ft 292 kts 26°
2026-05-07 18:19 42.23945 -83.51532 9164 ft 279 kts 26°
2026-05-07 18:19 42.25476 -83.50240 9120 ft 244 kts 26°
2026-05-07 18:19 42.26876 -83.49043 8988 ft 239 kts 26°
2026-05-07 18:20 42.28303 -83.47824 8857 ft 241 kts 26°
2026-05-07 18:20 42.29722 -83.46626 8743 ft 244 kts 25°
2026-05-07 18:20 42.31155 -83.45416 8602 ft 242 kts 26°
2026-05-07 18:20 42.32603 -83.44205 8305 ft 243 kts 26°
2026-05-07 18:21 42.34023 -83.43015 7989 ft 241 kts 26°
2026-05-07 18:21 42.35442 -83.41833 7669 ft 240 kts 25°
2026-05-07 18:21 42.36867 -83.40646 7349 ft 238 kts 25°
2026-05-07 18:21 42.38272 -83.39484 7034 ft 237 kts 25°
2026-05-07 18:22 42.39680 -83.38343 6723 ft 236 kts 25°
2026-05-07 18:22 42.40619 -83.37581 6509 ft 237 kts 25°
2026-05-07 18:22 42.42425 -83.36102 6132 ft 210 kts 25°
2026-05-07 18:22 42.43613 -83.35110 5820 ft 198 kts 26°
2026-05-07 18:23 42.44754 -83.34154 5482 ft 197 kts 26°
2026-05-07 18:23 42.45913 -83.33195 5151 ft 198 kts 26°
2026-05-07 18:23 42.47087 -83.32222 4826 ft 198 kts 26°
2026-05-07 18:23 42.48242 -83.31225 4493 ft 199 kts 34°
2026-05-07 18:24 42.48934 -83.29593 4092 ft 209 kts 79°
2026-05-07 18:24 42.48680 -83.27689 3703 ft 209 kts 119°
2026-05-07 18:24 42.47926 -83.26040 3351 ft 206 kts 139°
2026-05-07 18:24 42.46766 -83.24982 3002 ft 199 kts 161°
2026-05-07 18:25 42.45502 -83.24281 2854 ft 193 kts 163°
2026-05-07 18:25 42.44247 -83.23576 2950 ft 197 kts 163°
2026-05-07 18:25 42.42963 -83.22909 2934 ft 197 kts 164°
2026-05-07 18:25 42.41669 -83.22298 2916 ft 195 kts 176°
2026-05-07 18:26 42.40419 -83.22647 2944 ft 181 kts 213°
2026-05-07 18:26 42.39265 -83.23411 2938 ft 183 kts 212°
2026-05-07 18:26 42.38124 -83.24178 2933 ft 182 kts 212°
2026-05-07 18:26 42.36992 -83.24956 2944 ft 182 kts 213°
2026-05-07 18:27 42.35869 -83.25741 2940 ft 183 kts 214°
2026-05-07 18:27 42.34743 -83.26538 2936 ft 183 kts 214°
2026-05-07 18:27 42.33619 -83.27341 2935 ft 182 kts 214°
2026-05-07 18:27 42.32499 -83.28151 2889 ft 183 kts 214°
2026-05-07 18:28 42.31385 -83.28954 2562 ft 179 kts 214°
2026-05-07 18:28 42.30281 -83.29764 2426 ft 180 kts 214°
2026-05-07 18:28 42.29208 -83.30547 1901 ft 176 kts 214°
2026-05-07 18:28 42.28162 -83.31302 1559 ft 163 kts 215°
2026-05-07 18:29 42.27193 -83.31950 1324 ft 146 kts 214°
2026-05-07 18:29 42.26304 -83.32546 1159 ft 149 kts 212°
2026-05-07 18:29 42.25342 -83.33235 1072 ft 154 kts 215°
2026-05-07 18:29 42.24443 -83.33957 915 ft 148 kts 216°
2026-05-07 18:30 42.23574 -83.34640 773 ft 140 kts 215°
2026-05-07 18:30 42.22759 -83.35255 651 ft 126 kts 215°
2026-05-07 18:30 42.22208 -83.35682 643 ft 34 kts 211°
2026-05-07 18:30 42.22159 -83.35716 643 ft 16 kts 206°
2026-05-07 18:31 42.21973 -83.35849 643 ft 30 kts 211°
2026-05-07 18:31 42.21841 -83.35944 643 ft 13 kts 185°
2026-05-07 18:31 42.21814 -83.35845 643 ft 11 kts 87°
2026-05-07 18:31 42.21827 -83.35703 643 ft 13 kts 59°
2026-05-07 18:32 42.21916 -83.35622 643 ft 19 kts 29°
2026-05-07 18:32 42.22057 -83.35519 643 ft 25 kts 28°
2026-05-07 18:32 42.22176 -83.35429 643 ft 15 kts 28°
2026-05-07 18:32 42.22247 -83.35355 643 ft 9 kts 75°
2026-05-07 18:33 42.22256 -83.35267 642 ft 10 kts 85°
2026-05-07 18:33 42.22258 -83.35236 643 ft 0 kts 84°